Time,TemperatureF,DewpointF,PressureIn,WindDirection,WindDirectionDegrees,WindSpeedMPH,WindSpeedGustMPH,Humidity,HourlyPrecipIn,Conditions,Clouds,dailyrainin,SoftwareType,DateUTC
2013-03-05 00:02:00,32.0,18.0,-100.00,ENE,70,1.0,10.0,54,0.00,,,-99.99,,2013-03-05 05:02:00,
2013-03-05 00:12:00,32.0,16.0,-100.00,East,81,1.0,10.0,49,0.00,,,-99.99,,2013-03-05 05:12:00,
2013-03-05 00:22:00,32.0,18.0,-100.00,ENE,70,1.0,1.0,51,0.00,,,-99.99,,2013-03-05 05:22:00,
2013-03-05 00:32:00,32.0,18.0,-100.00,ENE,72,0.0,1.0,51,0.00,,,-99.99,,2013-03-05 05:32:00,
2013-03-05 00:42:00,32.0,18.0,-100.00,ENE,72,0.0,1.0,50,1.14,,,-99.99,,2013-03-05 05:42:00,
2013-03-05 00:52:00,32.0,21.0,-100.00,ENE,72,0.0,1.0,59,14.72,,,-99.99,,2013-03-05 05:52:00,
2013-03-05 01:01:00,31.0,23.0,-100.00,East,81,0.0,1.0,67,1.69,,,-99.99,,2013-03-05 06:01:00,
2013-03-05 01:11:00,31.0,23.0,-100.00,ENE,72,0.0,1.0,72,2.28,,,-99.99,,2013-03-05 06:11:00,
2013-03-05 01:22:00,30.0,25.0,-100.00,ENE,72,0.0,1.0,76,0.00,,,-99.99,,2013-03-05 06:22:00,
2013-03-05 01:32:00,30.0,25.0,-100.00,ENE,62,0.0,1.0,78,0.00,,,-99.99,,2013-03-05 06:32:00,
2013-03-05 01:42:00,30.0,25.0,-100.00,ENE,72,0.0,1.0,80,0.00,,,-99.99,,2013-03-05 06:42:00,
2013-03-05 01:52:00,30.0,27.0,-100.00,ENE,62,0.0,1.0,81,0.00,,,-99.99,,2013-03-05 06:52:00,
2013-03-05 02:01:00,30.0,27.0,-100.00,ENE,63,1.0,1.0,82,0.00,,,-99.99,,2013-03-05 07:01:00,
2013-03-05 02:11:00,30.0,27.0,-100.00,ENE,72,0.0,1.0,84,0.55,,,-99.99,,2013-03-05 07:11:00,
2013-03-05 02:22:00,30.0,27.0,-100.00,ENE,72,0.0,1.0,85,1.14,,,-99.99,,2013-03-05 07:22:00,
2013-03-05 02:32:00,29.0,27.0,-100.00,ENE,72,1.0,1.0,88,1.14,,,-99.99,,2013-03-05 07:32:00,
2013-03-05 02:42:00,29.0,27.0,-100.00,East,81,1.0,1.0,89,0.55,,,-99.99,,2013-03-05 07:42:00,
2013-03-05 02:51:00,29.0,27.0,-100.00,ENE,63,1.0,1.0,90,0.55,,,-99.99,,2013-03-05 07:51:00,
2013-03-05 03:02:00,28.0,27.0,-100.00,ENE,72,2.0,2.0,91,0.00,,,-99.99,,2013-03-05 08:02:00,
2013-03-05 03:11:00,29.0,28.0,-100.00,ENE,62,1.0,2.0,93,0.00,,,-99.99,,2013-03-05 08:11:00,
2013-03-05 03:21:00,28.0,27.0,-100.00,East,83,1.0,2.0,93,0.00,,,-99.99,,2013-03-05 08:21:00,
2013-03-05 03:31:00,29.0,28.0,-100.00,ENE,63,2.0,2.0,93,0.00,,,-99.99,,2013-03-05 08:31:00,
2013-03-05 03:42:00,29.0,28.0,-100.00,East,81,2.0,2.0,93,0.00,,,-99.99,,2013-03-05 08:42:00,
2013-03-05 03:52:00,28.0,27.0,-100.00,ENE,74,2.0,2.0,93,0.00,,,-99.99,,2013-03-05 08:52:00,
2013-03-05 04:01:00,28.0,27.0,-100.00,East,81,2.0,2.0,93,0.00,,,-99.99,,2013-03-05 09:01:00,
2013-03-05 04:11:00,29.0,28.0,-100.00,East,81,2.0,2.0,94,0.00,,,-99.99,,2013-03-05 09:11:00,
2013-03-05 04:21:00,28.0,27.0,-100.00,ENE,63,3.0,4.0,94,0.00,,,-99.99,,2013-03-05 09:21:00,
2013-03-05 04:32:00,28.0,28.0,-100.00,ENE,63,4.0,4.0,93,0.00,,,-99.99,,2013-03-05 09:32:00,
2013-03-05 04:43:00,29.0,28.0,-100.00,ENE,72,4.0,4.0,93,0.00,,,-99.99,,2013-03-05 09:43:00,
2013-03-05 04:52:00,30.0,28.0,-100.00,ENE,73,4.0,4.0,91,0.00,,,-99.99,,2013-03-05 09:52:00,
2013-03-05 05:01:00,27.0,25.0,-100.00,ENE,72,5.0,6.0,90,0.00,,,-99.99,,2013-03-05 10:01:00,
2013-03-05 05:11:00,27.0,25.0,-100.00,ENE,77,4.0,6.0,90,0.00,,,-99.99,,2013-03-05 10:11:00,
2013-03-05 05:21:00,27.0,25.0,-100.00,East,81,4.0,6.0,88,0.00,,,-99.99,,2013-03-05 10:21:00,
2013-03-05 05:32:00,30.0,28.0,-100.00,ENE,73,4.0,6.0,88,0.00,,,-99.99,,2013-03-05 10:32:00,
2013-03-05 05:42:00,29.0,27.0,-100.00,East,83,4.0,6.0,84,0.00,,,-99.99,,2013-03-05 10:42:00,
2013-03-05 05:52:00,28.0,23.0,-100.00,ENE,69,5.0,6.0,82,0.00,,,-99.99,,2013-03-05 10:52:00,
2013-03-05 06:02:00,30.0,27.0,-100.00,ENE,63,6.0,6.0,82,0.00,,,-99.99,,2013-03-05 11:02:00,
2013-03-05 06:11:00,30.0,27.0,-100.00,ENE,72,6.0,8.0,84,0.00,,,-99.99,,2013-03-05 11:11:00,
2013-03-05 06:22:00,29.0,25.0,-100.00,ENE,64,6.0,8.0,82,0.00,,,-99.99,,2013-03-05 11:22:00,
2013-03-05 06:32:00,30.0,27.0,-100.00,ENE,69,7.0,10.0,84,0.00,,,-99.99,,2013-03-05 11:32:00,
2013-03-05 06:42:00,30.0,27.0,-100.00,ENE,73,8.0,10.0,82,0.00,,,-99.99,,2013-03-05 11:42:00,
2013-03-05 06:52:00,30.0,25.0,-100.00,ENE,72,8.0,10.0,81,0.00,,,-99.99,,2013-03-05 11:52:00,
2013-03-05 07:02:00,29.0,25.0,-100.00,ENE,72,7.0,10.0,80,0.00,,,-99.99,,2013-03-05 12:02:00,
2013-03-05 07:12:00,28.0,23.0,-100.00,ENE,72,7.0,10.0,78,0.00,,,-99.99,,2013-03-05 12:12:00,
2013-03-05 07:22:00,29.0,23.0,-100.00,ENE,72,6.0,10.0,77,0.00,,,-99.99,,2013-03-05 12:22:00,
2013-03-05 07:32:00,29.0,23.0,-100.00,East,81,6.0,10.0,77,0.00,,,-99.99,,2013-03-05 12:32:00,
2013-03-05 07:42:00,29.0,23.0,-100.00,ENE,73,6.0,10.0,77,0.00,,,-99.99,,2013-03-05 12:42:00,
2013-03-05 07:52:00,29.0,23.0,-100.00,ENE,72,7.0,10.0,76,0.00,,,-99.99,,2013-03-05 12:52:00,
2013-03-05 08:02:00,29.0,23.0,-100.00,East,81,6.0,10.0,75,0.00,,,-99.99,,2013-03-05 13:02:00,
2013-03-05 08:12:00,30.0,25.0,-100.00,ENE,72,7.0,10.0,77,0.00,,,-99.99,,2013-03-05 13:12:00,
2013-03-05 08:22:00,29.0,23.0,-100.00,ENE,70,8.0,10.0,72,0.00,,,-99.99,,2013-03-05 13:22:00,
2013-03-05 08:32:00,32.0,25.0,-100.00,East,80,8.0,10.0,73,0.00,,,-99.99,,2013-03-05 13:32:00,
2013-03-05 08:42:00,30.0,21.0,-100.00,ENE,64,6.0,10.0,68,0.00,,,-99.99,,2013-03-05 13:42:00,
2013-03-05 08:52:00,30.0,21.0,-100.00,East,80,7.0,10.0,68,0.00,,,-99.99,,2013-03-05 13:52:00,
2013-03-05 09:02:00,30.0,21.0,-100.00,ENE,69,7.0,10.0,67,0.00,,,-99.99,,2013-03-05 14:02:00,
2013-03-05 09:11:00,33.0,23.0,-100.00,ENE,72,5.0,10.0,66,0.00,,,-99.99,,2013-03-05 14:11:00,
2013-03-05 09:22:00,31.0,21.0,-100.00,ENE,72,5.0,10.0,66,0.00,,,-99.99,,2013-03-05 14:22:00,
2013-03-05 09:32:00,31.0,21.0,-100.00,East,79,6.0,10.0,64,0.00,,,-99.99,,2013-03-05 14:32:00,
2013-03-05 09:42:00,31.0,21.0,-100.00,ENE,72,6.0,10.0,64,0.00,,,-99.99,,2013-03-05 14:42:00,
2013-03-05 09:52:00,31.0,21.0,-100.00,ENE,72,7.0,10.0,62,0.00,,,-99.99,,2013-03-05 14:52:00,
2013-03-05 10:02:00,32.0,21.0,-100.00,ENE,70,7.0,10.0,63,0.00,,,-99.99,,2013-03-05 15:02:00,
2013-03-05 10:11:00,32.0,21.0,-100.00,East,81,6.0,10.0,62,0.00,,,-99.99,,2013-03-05 15:11:00,
2013-03-05 10:22:00,32.0,21.0,-100.00,East,79,6.0,10.0,59,0.00,,,-99.99,,2013-03-05 15:22:00,
2013-03-05 10:32:00,33.0,21.0,-100.00,ENE,77,7.0,10.0,60,0.00,,,-99.99,,2013-03-05 15:32:00,
2013-03-05 10:42:00,32.0,19.0,-100.00,ENE,66,7.0,10.0,56,0.00,,,-99.99,,2013-03-05 15:42:00,
2013-03-05 10:52:00,33.0,19.0,-100.00,ENE,70,8.0,10.0,55,0.00,,,-99.99,,2013-03-05 15:52:00,
2013-03-05 11:02:00,33.0,19.0,-100.00,East,81,7.0,10.0,56,0.00,,,-99.99,,2013-03-05 16:02:00,
2013-03-05 11:11:00,33.0,19.0,-100.00,East,81,8.0,10.0,53,0.00,,,-99.99,,2013-03-05 16:11:00,
2013-03-05 11:22:00,34.0,19.0,-100.00,ENE,72,9.0,12.0,54,0.00,,,-99.99,,2013-03-05 16:22:00,
2013-03-05 11:32:00,35.0,19.0,-100.00,ENE,74,7.0,12.0,53,0.00,,,-99.99,,2013-03-05 16:32:00,
2013-03-05 11:42:00,37.0,23.0,-100.00,ENE,70,6.0,12.0,53,0.00,,,-99.99,,2013-03-05 16:42:00,
2013-03-05 11:52:00,38.0,21.0,-100.00,ENE,70,6.0,12.0,51,0.00,,,-99.99,,2013-03-05 16:52:00,
2013-03-05 12:01:00,37.0,21.0,-100.00,East,81,6.0,12.0,51,0.55,,,-99.99,,2013-03-05 17:01:00,
2013-03-05 12:11:00,37.0,23.0,-100.00,ENE,67,9.0,14.0,53,7.36,,,-99.99,,2013-03-05 17:11:00,
2013-03-05 12:22:00,35.0,21.0,-100.00,ENE,70,9.0,14.0,56,0.55,,,-99.99,,2013-03-05 17:22:00,
2013-03-05 12:32:00,36.0,19.0,-100.00,ENE,77,8.0,14.0,50,0.00,,,-99.99,,2013-03-05 17:32:00,
2013-03-05 12:42:00,36.0,19.0,-100.00,ENE,70,9.0,14.0,49,20.98,,,-99.99,,2013-03-05 17:42:00,
2013-03-05 12:52:00,36.0,21.0,-100.00,ENE,76,7.0,14.0,51,0.55,,,-99.99,,2013-03-05 17:52:00,
2013-03-05 13:02:00,36.0,23.0,-100.00,ENE,72,6.0,14.0,56,0.00,,,-99.99,,2013-03-05 18:02:00,
2013-03-05 13:11:00,38.0,23.0,-100.00,ENE,62,8.0,14.0,54,0.00,,,-99.99,,2013-03-05 18:11:00,
2013-03-05 13:22:00,38.0,25.0,-100.00,ENE,70,7.0,14.0,56,0.00,,,-99.99,,2013-03-05 18:22:00,
2013-03-05 13:32:00,40.0,23.0,-100.00,ENE,77,6.0,14.0,51,4.53,,,-99.99,,2013-03-05 18:32:00,
2013-03-05 13:42:00,40.0,23.0,-100.00,ENE,73,9.0,14.0,51,0.00,,,-99.99,,2013-03-05 18:42:00,
2013-03-05 13:52:00,39.0,23.0,-100.00,ENE,70,8.0,14.0,51,0.00,,,-99.99,,2013-03-05 18:52:00,
2013-03-05 14:01:00,39.0,23.0,-100.00,ENE,76,9.0,14.0,51,0.00,,,-99.99,,2013-03-05 19:01:00,
2013-03-05 14:11:00,37.0,21.0,-100.00,East,81,9.0,14.0,49,0.00,,,-99.99,,2013-03-05 19:11:00,
2013-03-05 14:22:00,37.0,21.0,-100.00,East,81,6.0,14.0,50,0.00,,,-99.99,,2013-03-05 19:22:00,
2013-03-05 14:32:00,39.0,23.0,-100.00,ENE,70,6.0,14.0,51,0.00,,,-99.99,,2013-03-05 19:32:00,
2013-03-05 14:42:00,37.0,21.0,-100.00,ENE,72,7.0,14.0,50,0.00,,,-99.99,,2013-03-05 19:42:00,
2013-03-05 14:52:00,38.0,21.0,-100.00,ENE,76,7.0,14.0,50,0.00,,,-99.99,,2013-03-05 19:52:00,
2013-03-05 15:01:00,39.0,23.0,-100.00,East,81,6.0,14.0,50,0.00,,,-99.99,,2013-03-05 20:01:00,
2013-03-05 15:11:00,38.0,21.0,-100.00,ENE,72,6.0,14.0,50,0.00,,,-99.99,,2013-03-05 20:11:00,
2013-03-05 15:22:00,40.0,25.0,-100.00,ENE,70,7.0,14.0,53,0.00,,,-99.99,,2013-03-05 20:22:00,
2013-03-05 15:32:00,38.0,23.0,-100.00,ENE,74,6.0,14.0,53,0.00,,,-99.99,,2013-03-05 20:32:00,
2013-03-05 15:42:00,40.0,25.0,-100.00,ENE,72,6.0,14.0,54,0.00,,,-99.99,,2013-03-05 20:42:00,
2013-03-05 15:52:00,40.0,25.0,-100.00,ENE,62,7.0,14.0,54,0.00,,,-99.99,,2013-03-05 20:52:00,
2013-03-05 16:02:00,38.0,21.0,-100.00,ENE,74,7.0,14.0,51,0.00,,,-99.99,,2013-03-05 21:02:00,
2013-03-05 16:11:00,38.0,21.0,-100.00,ENE,69,7.0,14.0,51,0.00,,,-99.99,,2013-03-05 21:11:00,
2013-03-05 16:22:00,38.0,23.0,-100.00,East,81,5.0,14.0,53,0.00,,,-99.99,,2013-03-05 21:22:00,
2013-03-05 16:32:00,41.0,27.0,-100.00,ENE,64,5.0,14.0,53,0.00,,,-99.99,,2013-03-05 21:32:00,
2013-03-05 16:42:00,40.0,27.0,-100.00,ENE,72,6.0,14.0,54,0.00,,,-99.99,,2013-03-05 21:42:00,
2013-03-05 16:52:00,40.0,27.0,-100.00,East,81,6.0,14.0,54,0.00,,,-99.99,,2013-03-05 21:52:00,
2013-03-05 17:01:00,41.0,27.0,-100.00,ENE,72,6.0,14.0,55,0.00,,,-99.99,,2013-03-05 22:01:00,
2013-03-05 17:11:00,38.0,23.0,-100.00,ENE,72,6.0,14.0,53,0.00,,,-99.99,,2013-03-05 22:11:00,
2013-03-05 17:22:00,40.0,27.0,-100.00,East,80,9.0,14.0,55,0.00,,,-99.99,,2013-03-05 22:22:00,
2013-03-05 17:32:00,41.0,27.0,-100.00,ENE,69,8.0,14.0,54,0.00,,,-99.99,,2013-03-05 22:32:00,
2013-03-05 17:42:00,41.0,27.0,-100.00,ENE,72,7.0,14.0,53,0.00,,,-99.99,,2013-03-05 22:42:00,
2013-03-05 17:52:00,41.0,27.0,-100.00,ENE,72,6.0,14.0,54,0.00,,,-99.99,,2013-03-05 22:52:00,
2013-03-05 18:01:00,41.0,27.0,-100.00,ENE,72,6.0,14.0,54,0.00,,,-99.99,,2013-03-05 23:01:00,
2013-03-05 18:11:00,41.0,27.0,-100.00,ENE,72,6.0,14.0,54,0.00,,,-99.99,,2013-03-05 23:11:00,
2013-03-05 18:21:00,39.0,25.0,-100.00,ENE,70,6.0,14.0,53,0.00,,,-99.99,,2013-03-05 23:21:00,
2013-03-05 18:32:00,39.0,25.0,-100.00,East,80,6.0,14.0,55,5.67,,,-99.99,,2013-03-05 23:32:00,
2013-03-05 18:42:00,39.0,25.0,-100.00,ENE,74,6.0,14.0,56,26.06,,,-99.99,,2013-03-05 23:42:00,
2013-03-05 18:52:00,38.0,28.0,-100.00,ENE,62,5.0,14.0,63,24.37,,,-99.99,,2013-03-05 23:52:00,
2013-03-05 19:01:00,38.0,28.0,-100.00,ENE,72,6.0,14.0,66,23.23,,,-99.99,,2013-03-06 00:01:00,
2013-03-05 19:11:00,38.0,30.0,-100.00,ENE,72,5.0,14.0,71,14.72,,,-99.99,,2013-03-06 00:11:00,
2013-03-05 19:21:00,36.0,30.0,-100.00,ENE,63,4.0,14.0,75,7.95,,,-99.99,,2013-03-06 00:21:00,
2013-03-05 19:32:00,36.0,30.0,-100.00,East,81,3.0,14.0,77,9.06,,,-99.99,,2013-03-06 00:32:00,
2013-03-05 19:42:00,36.0,32.0,-100.00,ENE,72,2.0,14.0,80,10.79,,,-99.99,,2013-03-06 00:42:00,
2013-03-05 19:52:00,37.0,32.0,-100.00,ENE,67,3.0,14.0,77,7.36,,,-99.99,,2013-03-06 00:52:00,
2013-03-05 20:02:00,36.0,32.0,-100.00,ENE,67,2.0,14.0,82,11.89,,,-99.99,,2013-03-06 01:02:00,
2013-03-05 20:11:00,35.0,30.0,-100.00,ENE,74,2.0,14.0,81,29.49,,,-99.99,,2013-03-06 01:11:00,
2013-03-05 20:21:00,36.0,32.0,-100.00,ENE,62,4.0,14.0,84,22.13,,,-99.99,,2013-03-06 01:21:00,
2013-03-05 20:32:00,35.0,32.0,-100.00,ENE,72,5.0,14.0,84,-99.99,,,-99.99,,2013-03-06 01:32:00,
2013-03-05 20:42:00,38.0,34.0,-100.00,ENE,72,6.0,14.0,88,26.06,,,-99.99,,2013-03-06 01:42:00,
2013-03-05 20:51:00,38.0,34.0,-100.00,ENE,63,6.0,14.0,89,16.46,,,-99.99,,2013-03-06 01:51:00,
2013-03-05 21:01:00,37.0,34.0,-100.00,ENE,63,6.0,14.0,89,10.79,,,-99.99,,2013-03-06 02:01:00,
2013-03-05 21:11:00,37.0,34.0,-100.00,ENE,73,5.0,14.0,93,9.65,,,-99.99,,2013-03-06 02:11:00,
2013-03-05 21:22:00,36.0,34.0,-100.00,East,81,4.0,14.0,94,8.50,,,-99.99,,2013-03-06 02:22:00,
2013-03-05 21:32:00,37.0,34.0,-100.00,ENE,72,4.0,14.0,90,11.89,,,-99.99,,2013-03-06 02:32:00,
2013-03-05 21:42:00,36.0,32.0,-100.00,ENE,72,4.0,14.0,86,31.18,,,-99.99,,2013-03-06 02:42:00,
2013-03-05 21:52:00,36.0,32.0,-100.00,ENE,73,4.0,14.0,88,-99.99,,,-99.99,,2013-03-06 02:52:00,
2013-03-05 22:02:00,36.0,32.0,-100.00,East,79,4.0,14.0,86,-99.99,,,-99.99,,2013-03-06 03:02:00,
2013-03-05 22:11:00,35.0,32.0,-100.00,ENE,63,4.0,14.0,89,26.65,,,-99.99,,2013-03-06 03:11:00,
2013-03-05 22:22:00,35.0,32.0,-100.00,ENE,63,4.0,14.0,90,0.55,,,-99.99,,2013-03-06 03:22:00,
2013-03-05 22:32:00,34.0,32.0,-100.00,East,81,4.0,14.0,93,0.00,,,-99.99,,2013-03-06 03:32:00,
2013-03-05 22:42:00,35.0,32.0,-100.00,ENE,74,4.0,14.0,93,1.69,,,-99.99,,2013-03-06 03:42:00,
2013-03-05 22:52:00,34.0,32.0,-100.00,East,81,3.0,14.0,95,0.55,,,-99.99,,2013-03-06 03:52:00,
2013-03-05 23:02:00,34.0,32.0,-100.00,ENE,73,4.0,14.0,97,1.14,,,-99.99,,2013-03-06 04:02:00,
2013-03-05 23:11:00,33.0,32.0,-100.00,ENE,73,5.0,14.0,98,1.69,,,-99.99,,2013-03-06 04:11:00,
2013-03-05 23:22:00,33.0,32.0,-100.00,ENE,73,4.0,14.0,98,1.14,,,-99.99,,2013-03-06 04:22:00,
2013-03-05 23:32:00,33.0,32.0,-100.00,ENE,72,6.0,14.0,99,2.83,,,-99.99,,2013-03-06 04:32:00,
2013-03-05 23:42:00,32.0,32.0,-100.00,East,80,4.0,14.0,100,1.14,,,-99.99,,2013-03-06 04:42:00,
2013-03-05 23:52:00,32.0,32.0,-100.00,East,81,4.0,14.0,100,2.83,,,-99.99,,2013-03-06 04:52:00,